Location: Grand Canyon Star Party (South Rim)
(36.0641°N, 112.1172°W)
Time: 19:12:55
(UTC-07:00)

N. Korean satellite - Visible Passes

Search period start: 23 November 2017 00:00
Search period end: 03 December 2017 00:00
Orbit: 460 x 514 km, 97.2° (Epoch: 22 November)

Date Brightness Start Highest point End Pass type
(mag) Time Alt. Az. Time Alt. Az. Time Alt. Az.
23 Nov 7.4 17:57:48 10° SE 18:00:48 27° ENE 18:03:50 10° NNE visible
23 Nov 9.8 19:32:31 10° SW 19:34:20 14° W 19:36:11 10° WNW visible
24 Nov 8.7 19:07:40 10° SSW 19:10:43 27° W 19:13:48 10° NW visible
25 Nov 9.2 06:37:17 10° NE 06:40:30 27° E 06:43:42 10° SSE visible
25 Nov 7.0 18:43:41 10° S 18:47:09 61° W 18:50:42 10° NNW visible
26 Nov 10.0 06:14:57 10° ENE 06:16:52 14° E 06:18:48 10° SE visible
26 Nov 6.5 18:20:13 10° SSE 18:23:40 58° ENE 18:27:12 10° N visible
27 Nov 7.5 17:57:15 10° SE 18:00:16 27° ENE 18:03:22 10° NNE visible
27 Nov 9.8 19:31:55 10° SW 19:33:49 14° W 19:35:44 10° WNW visible
28 Nov 8.7 19:07:05 10° SSW 19:10:10 28° W 19:13:19 10° NW visible
29 Nov 9.2 06:36:46 10° NE 06:39:59 26° E 06:43:10 10° SSE visible
29 Nov 7.0 18:43:05 10° S 18:46:36 62° W 18:50:11 10° NNW visible
30 Nov 10.0 06:14:25 10° ENE 06:16:20 13° E 06:18:13 10° ESE visible
30 Nov 6.5 18:19:36 10° SSE 18:23:06 58° ENE 18:26:40 10° N visible
01 Dec 7.5 17:56:37 10° SE 17:59:40 27° ENE 18:02:48 10° NNE visible
01 Dec 9.8 19:31:14 10° SW 19:33:13 14° W 19:35:13 10° WNW visible
02 Dec 8.6 19:06:26 10° SSW 19:09:32 28° W 19:12:45 10° NW visible
